EW7910 Weather Reports


time (UTC)temp
F
wind
direction
speed
knots
gust
knots
rain 1hr
in
rain 24hr
in
rain mn
in
humidity
%
barometer
mb
20260507130012 41 246 0.0 0.0 0.00 0.05 0.00 92 1012.4
20260507124512 41 14 0.0 0.0 0.00 0.05 0.00 94 1012.7
20260507123003 40 203 0.0 0.0 0.00 0.05 0.00 95 1012.4
20260507121502 39 253 0.0 0.0 0.00 0.05 0.00 95 1012.4
20260507120003 38 326 0.0 0.0 0.00 0.05 0.00 96 1012.4
20260507114502 38 323 0.0 0.0 0.00 0.05 0.00 96 1012.3
20260507113001 37 298 0.0 0.0 0.00 0.05 0.00 96 1012.2
20260507111502 37 163 0.0 0.0 0.00 0.05 0.00 97 1012.0
20260507110053 36 27 0.0 0.0 0.00 0.05 0.00 96 1012.0
20260507104554 0 0.0 0.0 0.00 0.05 0.00 1011.6
20260507103046 0 0.0 0.0 0.00 0.05 0.00 1011.7
20260507101553 0 0.0 0.0 0.00 0.05 0.00 1011.6
20260507100049 0 0.0 0.0 0.00 0.05 0.00 1011.5
20260507094536 0 0.0 0.0 0.00 0.05 0.00 1011.5
20260507093032 36 168 0.0 0.0 0.00 0.05 0.00 96 1011.7
20260507091532 36 173 0.0 0.0 0.00 0.05 0.00 96 1012.0
20260507090050 36 173 0.0 0.0 0.00 0.05 0.00 96 1011.7
20260507084551 37 173 0.0 0.0 0.00 0.05 0.00 95 1011.6
20260507083058 38 184 0.0 0.0 0.00 0.05 0.00 96 1011.5
20260507081556 38 174 0.0 0.0 0.00 0.05 0.00 96 1011.7
20260507080030 38 169 0.0 0.0 0.00 0.07 0.00 94 1011.6
20260507074527 39 165 0.0 0.0 0.00 0.07 0.00 95 1011.4
20260507073024 39 164 0.0 0.0 0.00 0.07 0.00 95 1011.8
20260507071522 40 160 0.0 0.0 0.00 0.07 0.00 94 1011.8
20260507070024 41 179 0.0 0.0 0.00 0.23 0.00 94 1011.8
20260507064528 41 171 0.0 0.0 0.00 0.23 0.00 94 1011.8
20260507063022 41 179 0.0 0.0 0.00 0.23 0.00 92 1011.9
20260507061516 41 134 0.0 0.0 0.00 0.23 0.00 91 1012.0
20260507060058 42 134 0.0 0.0 0.00 0.36 0.00 91 1012.0
20260507054555 42 219 0.0 0.0 0.00 0.36 0.00 90 1012.2
20260507053035 42 208 0.0 0.0 0.00 0.36 0.00 90 1012.3
20260507051536 42 189 0.0 0.0 0.00 0.36 0.00 90 1012.5
20260507050020 42 188 0.0 0.0 0.00 0.44 0.36 90 1012.4
20260507044515 42 188 0.0 0.0 0.00 0.44 0.36 90 1012.7
20260507043002 42 185 0.0 0.0 0.00 0.44 0.36 89 1012.4
20260507041503 42 184 0.0 0.0 0.00 0.44 0.36 89 1012.4
20260507040100 42 189 0.0 0.0 0.00 0.48 0.36 90 1012.4
20260507040001 42 189 0.0 0.0 0.00 0.48 0.36 90 1012.5
20260507034600 42 176 0.0 0.0 0.00 0.48 0.36 89 1012.2
20260507033100 42 150 0.0 0.0 0.00 0.48 0.36 90 1012.2
20260507031558 42 165 0.0 0.0 0.00 0.48 0.36 90 1012.3
20260507030100 42 205 0.0 0.0 0.00 0.54 0.36 90 1012.3
20260507024618 42 194 0.0 0.0 0.00 0.54 0.36 90 1011.9
20260507023046 42 204 0.0 0.0 0.00 0.54 0.36 90 1012.0
20260507021545 42 221 0.0 1.7 0.00 0.54 0.36 90 1012.1
20260507020103 42 243 2.6 6.1 0.00 0.60 0.36 90 1012.3
20260507014552 43 237 0.0 5.2 0.00 0.60 0.36 89 1012.3
20260507013046 43 248 1.7 6.1 0.00 0.60 0.36 89 1012.2
20260507011539 43 236 0.0 8.7 0.00 0.60 0.36 89 1011.9
20260507010037 43 242 2.6 15.6 0.00 0.64 0.36 90 1011.9
20260507004540 43 271 5.2 13.9 0.00 0.64 0.36 90 1011.9
20260507003014 44 243 3.5 11.3 0.00 0.64 0.36 91 1011.3
20260507001513 44 222 6.1 9.6 0.00 0.64 0.36 91 1011.1
20260507000054 44 237 3.5 9.6 0.00 0.69 0.36 91 1010.9
20260506234559 45 221 6.1 13.0 0.00 0.69 0.36 90 1010.9
20260506233032 45 233 0.9 8.7 0.00 0.69 0.36 91 1010.7
20260506231543 46 235 6.1 18.2 0.00 0.69 0.36 89 1010.5
20260506230016 47 263 7.8 17.4 0.00 0.80 0.36 85 1010.3
20260506224513 49 239 8.7 17.4 0.00 0.80 0.36 82 1009.9
20260506223012 50 254 7.8 19.1 0.00 0.80 0.36 78 1009.7
20260506221509 50 110 5.2 13.9 0.00 0.80 0.36 76 1009.3
20260506220007 51 169 0.0 1.7 0.00 0.82 0.36 85 1009.3
20260506214505 51 141 0.0 0.0 0.00 0.82 0.36 84 1009.1
20260506213002 50 93 0.0 0.9 0.00 0.82 0.36 86 1008.9
20260506211630 49 239 0.0 0.0 0.00 0.82 0.36 86 1008.8
20260506210103 49 98 0.0 0.0 0.00 0.82 0.36 86 1008.9
20260506204548 49 134 0.0 0.0 0.00 0.82 0.36 87 1008.9
20260506203045 48 274 0.0 0.0 0.00 0.82 0.36 89 1009.0
20260506201534 48 359 0.0 0.0 0.00 0.82 0.36 90 1009.0
20260506200021 47 71 0.0 0.0 0.00 0.82 0.36 92 1009.1
20260506194526 47 250 0.0 0.0 0.00 0.82 0.36 93 1009.3
20260506193019 46 316 0.0 0.0 0.00 0.82 0.36 94 1009.1
20260506191519 46 29 0.0 0.0 0.00 0.82 0.36 93 1008.9
20260506190019 46 314 0.0 0.0 0.00 0.82 0.36 93 1008.9
20260506184518 46 311 0.0 0.0 0.00 0.82 0.36 94 1008.9
20260506183028 46 297 0.0 0.0 0.00 0.82 0.36 94 1009.0
20260506181504 45 334 0.0 0.0 0.00 0.82 0.36 93 1009.0
20260506180010 46 332 0.0 0.0 0.00 0.82 0.36 92 1008.9
20260506174508 45 319 0.0 0.0 0.00 0.82 0.36 91 1008.7
20260506173002 45 191 0.0 0.0 0.00 0.82 0.36 92 1009.0
20260506171501 45 333 0.0 0.0 0.00 0.82 0.36 92 1008.5
20260506170114 45 330 0.0 0.0 0.00 0.82 0.36 92 1008.5
20260506164601 45 15 0.0 0.0 0.00 0.82 0.36 92 1008.1
20260506163110 45 271 0.0 0.0 0.00 0.82 0.36 92 1008.4
20260506161541 45 274 0.0 0.0 0.00 0.82 0.36 92 1008.3
20260506160041 45 278 0.0 0.0 0.00 0.82 0.36 93 1008.2
20260506154531 44 323 0.0 0.0 0.00 0.82 0.36 93 1008.1
20260506153025 45 319 0.0 0.0 0.01 0.82 0.36 94 1008.1
20260506151523 44 6 0.0 0.0 0.02 0.82 0.36 95 1007.8
20260506150022 44 38 0.0 0.0 0.02 0.82 0.36 95 1007.8
20260506144520 44 32 0.0 0.0 0.02 0.82 0.36 95 1007.6
20260506143028 43 25 0.0 0.0 0.01 0.81 0.35 95 1007.6
20260506141518 43 26 0.0 0.0 0.01 0.80 0.34 94 1007.3
20260506140016 43 21 0.0 0.0 0.02 0.80 0.34 95 1007.3
20260506134505 43 16 0.0 0.0 0.02 0.80 0.34 95 1007.2
20260506133005 43 86 0.0 0.0 0.02 0.79 0.33 95 1007.3
20260506131505 43 44 0.0 0.0 0.02 0.79 0.33 95 1007.1